Regional Weather Roundup
Issued by NWS

Home | Current Version | Previous Version | Text Only | Print | Product List | Glossary On
Versions: 1 2 3 4 5 6 7 8 9 10 11 12 13 14 15 16 17 18 19 20 21 22 23 24 25 26 27 28 29 30 31 32 33 34 35 36 37 38 39 40 41 42 43 44 45 46 47 48 49 50
000
ASUS42 KTBW 012110
RWRFL
FLORIDA REGIONAL WEATHER ROUNDUP
NATIONAL WEATHER SERVICE TAMPA BAY RUSKIN FL
400 PM EST SUN FEB 01 2015

NOTE: "FAIR" INDICATES FEW OR NO CLOUDS BELOW 12,000 FEET WITH NO
SIGNIFICANT WEATHER AND/OR OBSTRUCTIONS TO VISIBILITY.


FLZ001>010-012>015-112-114-115-012200-
PANHANDLE FLORIDA

CITY           SKY/WX    TMP DP  RH WIND       PRES   REMARKS
PENSACOLA      CLOUDY    64  62  93 S10       29.94F
PENSACOLA NAS  LGT RAIN  65  62  90 S14       29.93F
MILTON NAS     CLOUDY    64  62  93 S14G23    29.95F
CRESTVIEW      LGT RAIN  64  32  30 S9        29.97F
DUKE FIELD     LGT RAIN  64  62  93 S18       29.95F
VALPARAISO     LGT RAIN  63  62  96 S18G25    29.95F FOG
MARY ESTHER    LGT RAIN  64  61  88 S18       29.95F
TRI COUNTY     CLOUDY    62  60  93 SE7       30.00F
PANAMA CITY    RAIN      63  60  90 SE10      29.99F VSB 1
TYNDALL AFB    LGT RAIN  65  59  80 SE15G24   30.01F
APALACHICOLA   CLOUDY    67  58  72 SE14      30.02F

STATION/POSITION SKY/WX   TEMP    WIND        PRES    WAVE   SWELL
                          AIR SEA DIR/SP/G            HT/PER HT/PER
                          (F)     (DEG/KT/KT) (MB)    (FT/S) (FT/S)
30.1N   87.6W              65 62  180/ 12/ 14 1012.9F   7/ 7   7/ 7
29.2N   88.2W              70 69  230/ 14/ 16 1013.9    6/ 7   5/ 7
28.7N   86.0W              69 69  170/ 19/ 25 1015.5F   8/ 7
PANAMA CITY BEAC           61 60  130/ 16/ 17 1015.3F
CAPE SAN BLAS    NOT AVBL
TOWER C                    65     160/ 21/ 22 1016.2F
28.5N   84.5W              68 67  160/ 21/ 25 1016.4F   7/ 7   2/13

$$
FLZ011-016>038-118-127-128-134-139-239-012200-
NORTH FLORIDA

CITY           SKY/WX    TMP DP  RH WIND       PRES   REMARKS
MARIANNA       LGT RAIN  62  60  93 SE6       30.00F
TALLAHASSEE    PTSUNNY   67  50  54 S14G28    30.05F
PERRY          PTSUNNY   71  50  48 S13G20    30.06F
CROSS CITY       N/A     72  49  44 S15       30.06F
LAKE CITY      FAIR      72  45  37 S12G21    30.06F
GAINESVILLE    SUNNY     72  48  42 SE13      30.07F
MAYPORT NAS    SUNNY     69  53  56 S15G21    30.09F
JACKSONVILLE   MOSUNNY   72  46  39 S17       30.07F
JAX NAS        MOSUNNY   73  49  42 S14       30.08F
JAX CRAIG      MOSUNNY   69  52  54 SE14      30.08F
JAX CECIL      MOSUNNY   73  48  40 S7        30.07F
FERNANDINA BEA FAIR      72  55  56 SE12      30.08F
ST AUGUSTINE   SUNNY     69  56  62 SE16G22   30.10F

STATION/POSITION SKY/WX   TEMP    WIND        PRES    WAVE   SWELL
                          AIR SEA DIR/SP/G            HT/PER HT/PER
                          (F)     (DEG/KT/KT) (MB)    (FT/S) (FT/S)
SHELL POINT                60     130/  8/ 10   N/A
KEATON BEACH               63     160/ 12/ 14 1018.1F
CEDAR KEY                  64     190/  8/  9 1019.1F
FERNANDINA                 66 55  160/ 10/ 17 1018.2F
30.7N   81.3W                 58                N/A     3/11   2/11
MAYPORT                    67 58  150/  9/ 14 1019.0F
31.4N   80.9W              59 56  130/  6/  8 1019.2F   3/12   2/12
ST AUGUSTINE               62     150/ 15/ 16 1019.5F

$$
FLZ040-043>046-052-053-057-058-063-144-012200-
INTERIOR CENTRAL FLORIDA

CITY           SKY/WX    TMP DP  RH WIND       PRES   REMARKS
OCALA          MOSUNNY   73  46  38 S14G23    30.08F
THE VILLAGES     N/A     73  50  43 SE12G17   29.98F
LEESBURG       MOSUNNY   73  50  44 SE8       30.10F
SANFORD        SUNNY     74  46  36 S13       30.10F
ORLANDO EXEC   MOSUNNY   74  50  42 S9        30.10F
ORLANDO INTL   MOSUNNY   74  52  46 SE13      30.10F
KISSIMMEE      MOSUNNY   72  54  53 S14       30.10F
WINTER HAVEN   SUNNY     74  50  42 SE14      30.10F
LAKELAND       MOSUNNY   75  52  43 S15G22    30.09F
BARTOW         MOSUNNY   73  48  40 SE18      30.09F
OKEECHOBEE     MOSUNNY   73  55  53 SE8       30.11F

$$
FLZ041-047-054-059-064-141-147-012200-
EAST CENTRAL FLORIDA

CITY           SKY/WX    TMP DP  RH WIND       PRES   REMARKS
ORMOND BEACH   MOSUNNY   70  54  56 SE12G21   30.10F
DAYTONA BEACH  MOSUNNY   72  49  44 S13G24    30.10F
DELAND         PTCLDY    72  48  43 SE9       30.10F
NEW SMYRNA BEA MOSUNNY   73  50  43 SE15G22   30.13F
JFK SPACE CTR  SUNNY     71  47  41 S13G18    30.11F
TITUSVILLE     MOSUNNY   70  48  46 S17       30.12F
CAPE CANAVERAL SUNNY     70  53  53 S14       30.11F
PATRICK AFB    SUNNY     70  57  63 SE14      30.12F
MELBOURNE      SUNNY     70  53  54 SE15G22   30.12F
VERO BEACH     MOSUNNY   71  55  56 SE17      30.13F
FT PIERCE      MOSUNNY   71  56  58 SE17      30.12F
STUART         PTSUNNY   70  57  64 E14       30.15F

STATION/POSITION SKY/WX   TEMP    WIND        PRES    WAVE   SWELL
                          AIR SEA DIR/SP/G            HT/PER HT/PER
                          (F)     (DEG/KT/KT) (MB)    (FT/S) (FT/S)
28.5N   80.2W              68 70  150/ 17/ 19 1020.6F
28.9N   78.5W              68 75  130/ 14/ 17 1022.6S   6/11   5/11
TRIDENT PIER               68 63  140/  9/ 12 1020.5F
28.4N   80.5W                 63                N/A     4/ 5   2/11
27.6N   80.2W                 65                N/A     6/11   3/11

$$
FLZ050-056-061-142-242-148-248-149-249-151-251-155-255-
160-260-012200-
WEST CENTRAL FLORIDA

CITY           SKY/WX    TMP DP  RH WIND       PRES   REMARKS
CRYSTAL RIVER  FAIR      75  46  35 SE7       30.06F
INVERNESS      FAIR      75  46  35 S12       30.08F
BROOKSVILLE    SUNNY     76  49  38 SE14      30.07F
ZEPHYRHILLS    FAIR      75  45  33 SE10      30.08F
CLEARWATER     SUNNY     76  52  43 S15       30.06F
TAMPA INTL     SUNNY     75  49  39 S7        30.07F
TAMPA EXEC       N/A    N/A N/A N/A MISG        N/A
PLANT CITY       N/A    N/A N/A N/A MISG        N/A
MACDILL AFB    SUNNY     74  57  56 S12       30.07F
PETER O KNIGHT SUNNY     77  54  44 S6        30.07F
ST PETERSBURG  SUNNY     73  53  49 SW8       30.05F
SARASOTA       SUNNY     74  52  46 S15G23    30.05F
VENICE         FAIR      73  55  53 S13       30.08F

STATION/POSITION SKY/WX   TEMP    WIND        PRES    WAVE   SWELL
                          AIR SEA DIR/SP/G            HT/PER HT/PER
                          (F)     (DEG/KT/KT) (MB)    (FT/S) (FT/S)
CEDAR KEY                  64     190/  8/  9 1019.1F
28.5N   84.5W              68 67  160/ 21/ 25 1016.4F   7/ 7   2/13
27.3N   84.3W                 72                N/A     7/ 7
CLEARWATER BEACH           70 60  180/ 12/ 15 1017.8F
MIDDLE TAMPA BAY           70     220/  7/ 10 1018.2F
VENICE                     68 64  170/ 11/ 12 1018.1F

$$
FLZ066-069-070-075>078-162-262-165-265-012200-
SOUTHWEST FLORIDA AND KEYS

CITY           SKY/WX    TMP DP  RH WIND       PRES   REMARKS
PUNTA GORDA    SUNNY     77  50  38 SE9       30.09F
FT MYERS       SUNNY     78  50  37 S9        30.06F
SOUTHWEST INTL MOSUNNY   77  51  40 SE15      30.07F
NAPLES         SUNNY     78  52  40 S15G22    30.07F
MARCO ISLAND   CLEAR     75  55  50 SE12G18   30.09S
IMMOKALEE      PTCLDY   N/A N/A N/A E8        30.10F
MARATHON       MOSUNNY   75  62  64 SE8G16    30.09F
KEY WEST NAS   MOSUNNY   76  63  64 SE14      30.08F
KEY WEST INTL  SUNNY     74  64  71 SE16      30.09S

STATION/POSITION SKY/WX   TEMP    WIND        PRES    WAVE   SWELL
                          AIR SEA DIR/SP/G            HT/PER HT/PER
                          (F)     (DEG/KT/KT) (MB)    (FT/S) (FT/S)
VENICE                     68 64  170/ 11/ 12 1018.1F
NAPLES                     72     180/  5/ 12 1019.1F
26.0N   85.6W              73 73  140/ 19/ 25 1015.5F   6/ 7
DRY TORTUGAS               73     130/ 15/ 17 1018.0F
NW FL BAY                  71     120/ 12/ 13 1020.0F
SAND KEY                   74     120/ 18/ 21 1018.3F
SOMBRERO KEY               74     120/ 18/ 19 1019.6F
LONG KEY                   72 68  110/ 13/ 16 1020.3F
MOLASSES REEF              72 76  130/ 15/ 17 1019.6F

$$
FLZ067-068-071>074-168-172>174-012200-
SOUTHEAST FLORIDA

CITY           SKY/WX    TMP DP  RH WIND       PRES   REMARKS
W PALM BEACH   MOSUNNY   75  54  47 SE14      30.12F
FT LAUDER-EXEC MOSUNNY   73  55  53 SE15G21   30.12F
FT LAUDERDALE  PTSUNNY   72  57  59 SE13      30.12F
POMPANO BEACH  MOSUNNY   76  55  48 SE12      30.13F
PEMBROKE PINES CLOUDY    73  56  54 SE12G22   30.14S
OPA LOCKA      CLOUDY    73  56  54 E15       30.12F
MIAMI          PTSUNNY   73  55  53 SE12G21   30.13F
WEST KENDALL   PTSUNNY   76  57  51 E15       30.12F
HOMESTEAD      MOSUNNY   74  59  58 E12       30.12F

STATION/POSITION SKY/WX   TEMP    WIND        PRES    WAVE   SWELL
                          AIR SEA DIR/SP/G            HT/PER HT/PER
                          (F)     (DEG/KT/KT) (MB)    (FT/S) (FT/S)



USA.gov is the U.S. government's official web portal to all federal, state and local government web resources and services.